Device Time, Air Fuel Ratio(Commanded)(:1),Air Fuel Ratio(Measured)(:1),Ambient air temp(°F),Barometric pressure (from vehicle)(psi),Catalyst Temperature (Bank 1 Sensor 1)(°F),Engine Coolant Temperature(°F),Engine Load(%),Engine Load(Absolute)(%),Engine RPM(rpm),Fuel Rail Pressure(psi),Fuel Trim Bank 1 Long Term(%),Fuel Trim Bank 1 Short Term(%),Intake Air Temperature(°F),Intake Manifold Pressure(psi),Throttle Position(Manifold)(%),Timing Advance(°)
04-Jun-2023 15:06:32.098,9.76000023,-,127.4,14.35873606,1327.27995605,185,24.31372643,51.76470566,2828.5,786.10453996,-5.46875,0,104,10.00760392,21.56862831,39
04-Jun-2023 15:06:32.197,9.76000023,-,127.4,14.35873606,1327.27995605,185,25.49019623,51.37254715,2828.5,799.15793638,-5.46875,0.78125,104,10.15264166,21.56862831,39.5
04-Jun-2023 15:06:32.299,9.76000023,-,127.4,14.35873606,1327.27995605,185,25.49019623,85.49019623,2922.5,958.69944818,-5.46875,0,104,16.38926439,21.56862831,33.5
04-Jun-2023 15:06:32.397,9.55984402,-,127.4,14.35873606,1327.27995605,185,47.84313583,113.72548676,2922.5,1047.17246836,-5.46875,0,104,18.56483046,46.66666794,21.5
04-Jun-2023 15:06:32.498,9.55984402,-,127.4,14.35873606,1327.27995605,185,56.47058868,113.72548676,2922.5,1047.17246836,-5.46875,0,104,18.56483046,56.86274338,16.5
04-Jun-2023 15:06:32.597,9.22863293,-,127.4,14.35873606,1331.96002197,185,63.92156982,125.09803772,2930.5,1270.53058488,-5.46875,0,104,21.03047201,56.86274338,16.5
04-Jun-2023 15:06:32.697,9.06898403,-,127.4,14.35873606,1331.96002197,185,63.92156982,137.25489807,3017,1456.17888952,-5.46875,0,104,21.90069844,56.86274338,15
04-Jun-2023 15:06:32.797,9.06898403,-,127.4,14.35873606,1331.96002197,185,65.88235474,137.25489807,3017,1456.17888952,-5.46875,0,104,21.90069844,56.86274338,15
04-Jun-2023 15:06:32.897,9.06898403,-,127.4,14.35873606,1331.96002197,185,65.88235474,137.25489807,3017,1456.17888952,-5.46875,0,104,21.90069844,56.86274338,18
04-Jun-2023 15:06:32.997,9.06898403,-,127.4,14.35873606,1331.96002197,185,65.88235474,137.25489807,3017,2013.12380344,-5.46875,0,104,21.90069844,63.92156982,18
04-Jun-2023 15:06:33.097,8.68058586,-,127.4,14.35873606,1331.96002197,185,69.41176605,149.80392456,3107,2013.12380344,-5.46875,1.5625,104,23.06100034,77.2549057,15.5
04-Jun-2023 15:06:33.196,8.59242153,-,127.4,14.35873606,1331.96002197,185,70.19607544,152.54902649,3191,2168.3141831,-5.46875,1.5625,104,23.49611356,77.2549057,15.5
04-Jun-2023 15:06:33.297,8.5233202,-,127.4,14.35873606,1331.96002197,185,70.58823395,155.29411316,3191,2307.55041158,-5.46875,1.5625,104,23.64115129,77.2549057,16.5
04-Jun-2023 15:06:33.397,8.46136761,-,127.4,14.35873606,1331.96002197,185,70.98039246,158.43136597,3286.5,2454.03852696,-5.46875,1.5625,104,24.07626451,83.92156982,16.5
04-Jun-2023 15:06:33.497,8.39703083,-,127.4,14.35873606,1331.96002197,185,70.98039246,160.78431702,3364.5,2629.53418994,-5.46875,1.5625,104,24.51137772,83.92156982,15.5
04-Jun-2023 15:06:33.597,8.34460926,-,127.4,14.35873606,1331.96002197,185,71.76470947,163.52941895,3364.5,2587.47324592,-5.46875,2.34375,104,25.23656641,83.92156982,15.5
04-Jun-2023 15:06:33.699,8.34460926,-,127.4,14.35873606,1331.96002197,185,72.54901886,163.52941895,3364.5,2635.33569946,-5.46875,3.125,104,25.23656641,83.92156982,15
04-Jun-2023 15:06:33.797,8.25406265,-,127.4,14.35873606,1331.96002197,185,74.50980377,170.19607544,3479,2635.33569946,-5.46875,2.34375,104,26.10679284,83.92156982,13.5
04-Jun-2023 15:06:33.898,8.2111721,-,127.4,14.35873606,1331.96002197,185,76.47058868,174.90196228,3479,2668.6943792,-5.46875,1.5625,104,26.97701927,83.92156982,12.5
04-Jun-2023 15:06:34.000,8.18019485,-,127.4,14.35873606,1331.96002197,185,79.21568298,180.39215088,3589.5,2670.14475658,-5.46875,1.5625,104,27.70220796,83.92156982,12.5
04-Jun-2023 15:06:34.097,8.14921856,-,127.4,14.35873606,1331.96002197,185,80.39215851,184.3137207,3589.5,2694.80117204,-5.46875,0.78125,104,28.13732117,83.92156982,12.5
04-Jun-2023 15:06:34.198,8.12539101,-,127.4,14.35873606,1331.96002197,185,81.1764679,187.84313965,3693,2677.39664348,-5.46875,0.78125,104,28.57243439,83.92156982,12
04-Jun-2023 15:06:34.298,8.10632801,-,127.4,14.35873606,1331.96002197,185,81.1764679,188.23529053,3803,2710.75532322,-5.46875,0.78125,104,28.71747212,83.92156982,12.5
04-Jun-2023 15:06:34.397,8.08011723,-,127.4,14.35873606,1331.96002197,185,81.1764679,188.62745667,3803,2726.7094744,-5.46875,0,104,28.71747212,83.92156982,12.5
04-Jun-2023 15:06:34.499,8.0705862,-,127.4,14.35873606,1331.96002197,185,81.5686264,189.80392456,3803,2731.06060654,-5.46875,0,104,29.0075476,83.92156982,12.5
04-Jun-2023 15:06:34.600,8.0705862,-,127.4,14.35873606,1331.96002197,185,81.96078491,189.80392456,3926,2731.06060654,-5.46875,0,104,29.29762308,83.92156982,12.5
04-Jun-2023 15:06:34.699,8.0705862,-,127.4,14.35873606,1331.96002197,185,81.96078491,189.80392456,3926,2744.11400296,-5.46875,0,104,29.29762308,83.92156982,12.5
04-Jun-2023 15:06:34.801,8.0467577,-,127.4,14.35873606,1331.96002197,185,81.96078491,189.80392456,3926,2744.11400296,-5.46875,0,104,29.29762308,83.92156982,12.5
04-Jun-2023 15:06:34.897,8.0467577,-,127.4,14.35873606,1331.96002197,185,81.96078491,189.80392456,4015,2744.11400296,-5.46875,-0.78125,104,29.58769855,83.92156982,13.5
04-Jun-2023 15:06:35.006,8.03007793,-,127.4,14.35873606,1395.5,185,81.96078491,187.84313965,4015,2768.77041842,-5.46875,-0.78125,104,29.58769855,83.92156982,13.5
04-Jun-2023 15:06:35.097,8.03007793,-,127.4,14.35873606,1395.5,185,81.1764679,187.84313965,4132.5,2768.77041842,-5.46875,-0.78125,104,29.87777403,83.92156982,13.5
04-Jun-2023 15:06:35.198,8.02769566,-,127.4,14.35873606,1395.5,185,81.1764679,187.84313965,4256,2799.2283434,-5.46875,0,104,29.87777403,83.92156982,13.5
04-Jun-2023 15:06:35.297,8.02293015,-,127.4,14.35873606,1395.5,185,80.39215851,187.45097351,4256,2787.62532436,-5.46875,0,104,30.1678495,83.92156982,13.5
04-Jun-2023 15:06:35.397,8.02054691,-,127.4,14.35873606,1395.5,185,80.39215851,186.27450562,4365.5,2796.32758864,-5.46875,0.78125,104,30.31288724,83.92156982,13.5
04-Jun-2023 15:06:35.497,8.01816368,-,127.4,14.35873606,1395.5,185,80.39215851,185.88235474,4477.5,2794.87721126,-5.46875,0,104,30.1678495,83.92156982,13.5
04-Jun-2023 15:06:35.597,8.0157814,-,127.4,14.35873606,1395.5,185,80.39215851,186.27450562,4477.5,2786.17494698,-5.46875,0,104,30.1678495,83.92156982,13.5
04-Jun-2023 15:06:35.697,8.01339817,-,127.4,14.35873606,1395.5,185,80.78431702,186.27450562,4477.5,2761.51853152,-5.46875,0.78125,104,30.74800046,83.92156982,14
04-Jun-2023 15:06:35.797,8.01339817,-,127.4,14.35873606,1395.5,185,81.1764679,187.05882263,4639.5,2761.51853152,-5.46875,0,104,30.74800046,83.92156982,14
04-Jun-2023 15:06:35.897,8.01339817,-,127.4,14.35873606,1395.5,185,81.5686264,187.84313965,4639.5,2784.7245696,-5.46875,0,104,30.89303819,83.92156982,14
04-Jun-2023 15:06:36.003,8.01101589,-,127.4,14.35873606,1395.5,185,81.5686264,189.41175842,4689.5,2762.9689089,-5.46875,0,104,30.89303819,83.92156982,14
04-Jun-2023 15:06:36.097,8.01101589,-,127.4,14.35873606,1395.5,186.8,82.35294342,190.19607544,4689.5,2770.2207958,-5.46875,-0.78125,104,30.89303819,83.92156982,14
04-Jun-2023 15:06:36.197,8.01101589,-,127.4,14.35873606,1395.5,186.8,82.35294342,190.19607544,4769.5,2770.2207958,-5.46875,-0.78125,102.2,31.18311367,83.92156982,14
04-Jun-2023 15:06:36.297,8.00863266,-,127.4,14.35873606,1450.57995605,186.8,82.35294342,191.76470947,4769.5,2783.27419222,-5.46875,-0.78125,102.2,31.18311367,83.92156982,14
04-Jun-2023 15:06:36.397,8.00863266,-,127.4,14.35873606,1450.57995605,186.8,83.13725281,192.94117737,4886.5,2768.77041842,-5.46875,-1.5625,102.2,31.32815141,83.92156982,14
04-Jun-2023 15:06:36.499,8.00863266,-,127.4,14.35873606,1450.57995605,186.8,83.52941132,192.94117737,4886.5,2768.77041842,-5.46875,-1.5625,102.2,31.32815141,83.92156982,14
04-Jun-2023 15:06:36.599,8.00863266,-,127.4,14.35873606,1450.57995605,186.8,83.52941132,192.94117737,4886.5,2768.77041842,-5.46875,-1.5625,102.2,31.32815141,83.92156982,14
04-Jun-2023 15:06:36.697,8.00625038,-,127.4,14.35873606,1450.57995605,186.8,83.52941132,194.11764526,4886.5,2770.2207958,-5.46875,-1.5625,102.2,31.32815141,83.92156982,14
04-Jun-2023 15:06:36.797,8.00625038,-,127.4,14.35873606,1450.57995605,186.8,83.13725281,194.11764526,5101,2789.07570174,-5.46875,-3.90625,102.2,31.18311367,83.92156982,15
04-Jun-2023 15:06:36.899,8.00625038,-,127.4,14.35873606,1450.57995605,186.8,83.13725281,195.29411316,5101,2789.07570174,-5.46875,-4.6875,102.2,31.32815141,83.92156982,15
04-Jun-2023 15:06:36.998,8.00625038,-,127.4,14.35873606,1450.57995605,186.8,83.52941132,195.6862793,5216.5,2813.7321172,-5.46875,-6.25,102.2,31.61822688,83.92156982,15
04-Jun-2023 15:06:37.096,8.00625038,-,127.4,14.35873606,1450.57995605,186.8,83.52941132,198.03921509,5295.5,2823.88475886,-5.46875,-6.25,102.2,31.90830236,83.92156982,15
04-Jun-2023 15:06:37.197,8.00625038,-,127.4,14.35873606,1450.57995605,186.8,83.92156982,199.21568298,5295.5,2816.63287196,-5.46875,-7.03125,102.2,31.76326462,83.92156982,14
04-Jun-2023 15:06:37.297,8.00625038,-,127.4,14.35873606,1450.57995605,186.8,83.92156982,201.1764679,5400.5,2815.18249458,-5.46875,-7.03125,102.2,32.0533401,83.92156982,14
04-Jun-2023 15:06:37.398,8.00625038,-,127.4,14.35873606,1450.57995605,186.8,84.31372833,202.35293579,5400.5,2816.63287196,-5.46875,-8.59375,102.2,32.34341557,83.92156982,14
04-Jun-2023 15:06:37.499,8.00625038,-,127.4,14.35873606,1450.57995605,186.8,84.70587921,204.3137207,5500.5,2820.9840041,-5.46875,-8.59375,102.2,32.34341557,83.92156982,14
04-Jun-2023 15:06:37.597,8.00625038,-,127.4,14.35873606,1450.57995605,186.8,84.70587921,206.27450562,5500.5,2835.4877779,-5.46875,-8.59375,102.2,32.34341557,83.92156982,15
04-Jun-2023 15:06:37.696,8.00625038,-,127.4,14.35873606,1450.57995605,186.8,85.88235474,210.19607544,5500.5,2832.58702314,-5.46875,-10.15625,102.2,32.34341557,83.92156982,15
04-Jun-2023 15:06:37.798,8.00625038,-,127.4,14.35873606,1450.57995605,186.8,87.45098114,210.19607544,5587.5,2832.58702314,-5.46875,-10.9375,102.2,32.63349105,83.92156982,15
04-Jun-2023 15:06:37.897,8.00625038,-,127.4,14.35873606,1450.57995605,186.8,87.45098114,210.98039246,5587.5,2838.38853266,-5.46875,-10.9375,102.2,33.06860426,83.92156982,15.5
04-Jun-2023 15:06:37.997,8.00625038,-,127.4,14.35873606,1450.57995605,186.8,87.84313965,211.76470947,5680.5,2834.03740052,-5.46875,-11.71875,102.2,32.63349105,83.92156982,15.5
04-Jun-2023 15:06:38.097,8.00625038,-,127.4,14.35873606,1450.57995605,186.8,87.84313965,207.84313965,5791.5,2871.7472124,-5.46875,-11.71875,102.2,32.19837784,83.92156982,15.5
04-Jun-2023 15:06:38.198,8.00625038,-,127.4,14.35873606,1450.57995605,186.8,85.09803772,206.27450562,5791.5,2883.35023144,-5.46875,-11.71875,102.2,31.76326462,83.92156982,15.5
04-Jun-2023 15:06:38.298,8.00625038,-,127.4,14.35873606,1450.57995605,186.8,85.09803772,205.09803772,5881,2854.34268384,-5.46875,-11.71875,102.2,31.47318915,51.76470566,15.5
04-Jun-2023 15:06:38.397,8.00625038,-,127.4,14.35873606,1450.57995605,186.8,85.09803772,205.09803772,5881,2854.34268384,-5.46875,-11.71875,102.2,31.47318915,51.76470566,15.5
04-Jun-2023 15:06:38.497,8.00625038,-,127.4,14.35873606,1450.57995605,186.8,85.49019623,205.09803772,5881,2854.34268384,-5.46875,-11.71875,102.2,31.47318915,51.76470566,15.5
04-Jun-2023 15:06:38.598,8.00625038,-,127.4,14.35873606,1450.57995605,186.8,85.49019623,205.09803772,5881,2852.89230646,-5.46875,-12.5,102.2,31.47318915,80,17
04-Jun-2023 15:06:38.699,8.00625038,-,127.4,14.35873606,1450.57995605,186.8,87.05882263,210.98039246,5977,2852.89230646,-5.46875,-13.28125,102.2,31.47318915,80,17
04-Jun-2023 15:06:38.797,8.00625038,-,127.4,14.35873606,1508.9,186.8,87.05882263,210.98039246,5977,2838.38853266,-5.46875,-13.28125,102.2,31.61822688,84.31372833,17
04-Jun-2023 15:06:38.897,8.00625038,-,127.4,14.35873606,1508.9,186.8,87.45098114,210.98039246,6098.5,2848.54117432,-5.46875,-13.28125,102.2,31.61822688,83.92156982,17
04-Jun-2023 15:06:38.998,8.00625038,-,127.4,14.35873606,1508.9,186.8,87.84313965,212.15686035,6120,2848.54117432,-5.46875,-13.28125,102.2,31.90830236,83.92156982,17
04-Jun-2023 15:06:39.097,8.00625038,-,127.4,14.35873606,1508.9,186.8,87.45098114,210.98039246,6120,2855.79306122,-5.46875,-14.0625,102.2,31.90830236,83.92156982,17
04-Jun-2023 15:06:39.197,8.00625038,-,127.4,14.35873606,1508.9,186.8,87.84313965,212.15686035,6281,2865.94570288,-5.46875,-14.0625,102.2,31.76326462,74.11764526,17
04-Jun-2023 15:06:39.299,8.00625038,-,127.4,14.35873606,1508.9,186.8,87.05882263,210.98039246,6321,2854.34268384,-5.46875,-14.0625,102.2,31.61822688,74.11764526,17
04-Jun-2023 15:06:39.398,8.00625038,-,127.4,14.35873606,1508.9,186.8,87.05882263,210.98039246,6321,2831.13664576,-5.46875,-14.0625,102.2,31.61822688,82.7450943,17
04-Jun-2023 15:06:39.499,8.00625038,-,127.4,14.35873606,1508.9,186.8,87.45098114,210.98039246,6321,2838.38853266,-5.46875,-14.84375,102.2,31.47318915,82.7450943,18
04-Jun-2023 15:06:39.600,8.00625038,-,127.4,14.35873606,1508.9,186.8,86.66666412,210.98039246,6440.5,2838.38853266,-5.46875,-14.84375,102.2,31.32815141,82.7450943,18
04-Jun-2023 15:06:39.699,8.00625038,-,127.4,14.35873606,1508.9,186.8,86.66666412,209.01960754,6523,2842.7396648,-5.46875,-14.84375,102.2,31.03807593,83.52941132,18
04-Jun-2023 15:06:39.799,8.00625038,-,127.4,14.35873606,1508.9,186.8,86.27451324,209.01960754,6523,2855.79306122,-5.46875,-14.84375,102.2,31.03807593,83.92156982,18.5
04-Jun-2023 15:06:39.899,8.00625038,-,127.4,14.35873606,1508.9,188.6,86.27451324,207.45097351,6587.5,2855.79306122,-5.46875,-14.84375,102.2,31.18311367,83.92156982,18.5
04-Jun-2023 15:06:40.000,8.00625038,-,127.4,14.35873606,1508.9,188.6,85.88235474,207.45097351,6587.5,2855.79306122,-5.46875,-14.84375,102.2,31.18311367,83.92156982,18.5
04-Jun-2023 15:06:40.099,8.00625038,-,127.4,14.35873606,1508,188.6,85.88235474,205.88235474,6587.5,2834.03740052,-5.46875,-14.84375,102.2,31.18311367,83.92156982,18.5
04-Jun-2023 15:06:40.201,8.00625038,-,127.4,14.35873606,1508,188.6,85.88235474,205.88235474,6668,2834.03740052,-5.46875,-14.84375,102.2,31.03807593,83.92156982,18.5
04-Jun-2023 15:06:40.299,8.00625038,-,127.4,14.35873606,1508,188.6,85.09803772,205.88235474,6668,2834.03740052,-5.46875,-14.84375,102.2,31.03807593,83.92156982,18.5
04-Jun-2023 15:06:40.400,8.00625038,-,127.4,14.35873606,1508,188.6,85.09803772,205.88235474,6668,2834.03740052,-5.46875,-14.84375,102.2,31.03807593,83.92156982,18.5
04-Jun-2023 15:06:40.500,8.00625038,-,127.4,14.35873606,1508,188.6,85.09803772,201.1764679,6810,2831.13664576,-5.46875,-14.84375,102.2,30.89303819,83.92156982,18.5
04-Jun-2023 15:06:40.599,8.00625038,-,127.4,14.35873606,1508,188.6,83.13725281,201.1764679,6810,2857.2434386,-5.46875,-15.625,102.2,30.89303819,83.92156982,18
04-Jun-2023 15:06:40.700,8.00625038,-,127.4,14.35873606,1508,188.6,83.13725281,203.13725281,6893,2857.2434386,-5.46875,-15.625,102.2,30.74800046,83.92156982,18
04-Jun-2023 15:06:40.799,8.00625038,-,127.4,14.35873606,1508,188.6,83.92156982,203.13725281,6893,2857.2434386,-5.46875,-15.625,102.2,30.74800046,83.92156982,18
04-Jun-2023 15:06:40.901,8.00625038,-,127.4,14.35873606,1508,188.6,83.52941132,201.56863403,6984.5,2852.89230646,-5.46875,-15.625,102.2,30.45792498,83.92156982,18
04-Jun-2023 15:06:40.998,11.36839867,-,127.4,14.35873606,1508,188.6,83.52941132,199.60784912,6984.5,2857.2434386,-5.46875,-16.40625,102.2,30.45792498,83.92156982,18
04-Jun-2023 15:06:41.098,11.36839867,-,127.4,14.35873606,1508,188.6,85.09803772,199.60784912,6984.5,2713.65607798,-5.46875,-3.125,102.2,30.74800046,83.92156982,9.5
04-Jun-2023 15:06:41.198,9.04039097,-,127.4,14.35873606,1508,188.6,84.31372833,204.3137207,6874,2713.65607798,-5.46875,7.8125,102.2,31.03807593,83.92156982,9.5
04-Jun-2023 15:06:41.300,9.04039097,-,127.4,14.35873606,1508,188.6,84.31372833,204.3137207,6874,2803.57947554,-5.46875,7.8125,102.2,31.03807593,83.92156982,14
04-Jun-2023 15:06:41.397,8.64246082,-,127.4,14.35873606,1520.6,188.6,83.52941132,200.78431702,6866.5,2803.57947554,-5.46875,-0.78125,102.2,30.45792498,83.92156982,14
04-Jun-2023 15:06:41.498,19.51970291,-,127.4,14.35873606,1520.6,188.6,83.52941132,106.27451324,6866.5,2899.30438262,-5.46875,-0.78125,102.2,10.2976794,83.92156982,-5.5
04-Jun-2023 15:06:41.599,19.51970291,-,127.4,14.35873606,1520.6,188.6,20.7843132,106.27451324,6662,2723.80871964,-5.46875,-0.78125,102.2,10.2976794,19.2156868,-9
04-Jun-2023 15:06:41.698,8.28265667,-,127.4,14.35873606,1520.6,188.6,41.96078491,40.39215851,6662,2723.80871964,-5.46875,-0.78125,102.2,14.35873606,19.2156868,-9
04-Jun-2023 15:06:41.799,8.17304707,-,127.4,14.35873606,1520.6,188.6,41.96078491,135.29411316,6662,2638.23645422,-5.46875,-3.90625,102.2,14.35873606,42.74509811,9.5
04-Jun-2023 15:06:41.900,8.17304707,-,127.4,14.35873606,1520.6,188.6,69.41176605,135.29411316,5067.5,2638.23645422,-5.46875,0,102.2,24.22130225,42.74509811,9.5
04-Jun-2023 15:06:42.001,8.12539101,-,127.4,14.35873606,1520.6,188.6,69.41176605,205.4901886,5067.5,2607.77852924,-5.46875,0,102.2,24.22130225,84.70587921,8
04-Jun-2023 15:06:42.099,8.12539101,-,127.4,14.35873606,1520.6,188.6,69.41176605,205.4901886,5067.5,2607.77852924,-5.46875,0,102.2,32.77852879,84.70587921,8
04-Jun-2023 15:06:42.199,8.12539101,-,127.4,14.35873606,1520.6,188.6,69.41176605,205.4901886,5067.5,2607.77852924,-5.46875,0,102.2,32.77852879,84.70587921,8
04-Jun-2023 15:06:42.298,8.12539101,-,127.4,14.35873606,1520.6,188.6,88.23529053,205.4901886,5381,2607.77852924,-5.46875,0,102.2,32.77852879,84.70587921,15
04-Jun-2023 15:06:42.397,8.06582069,-,127.4,14.35873606,1520.6,188.6,88.23529053,212.54902649,5381,2677.39664348,-5.46875,0,102.2,32.77852879,83.92156982,15
04-Jun-2023 15:06:42.500,8.06582069,-,127.4,14.35873606,1520.6,188.6,89.41176605,212.54902649,5424,2677.39664348,-5.46875,0,102.2,33.64875522,83.92156982,15
04-Jun-2023 15:06:42.599,8.06582069,-,127.4,14.35873606,1536.8,188.6,89.41176605,212.54902649,5424,2709.30494584,-5.46875,0,105.8,33.64875522,83.92156982,15
04-Jun-2023 15:06:42.698,8.0467577,-,127.4,14.35873606,1536.8,188.6,90.19607544,217.25489807,5475.5,2709.30494584,-5.46875,0,105.8,33.93883069,83.92156982,15
04-Jun-2023 15:06:42.800,8.03722668,-,127.4,14.35873606,1536.8,188.6,90.19607544,217.25489807,5475.5,2800.67872078,-5.46875,-13.28125,105.8,33.79379295,83.92156982,15
04-Jun-2023 15:06:42.898,8.03722668,-,127.4,14.35873606,1536.8,188.6,90.98039246,217.25489807,5565.5,2800.67872078,-5.46875,-14.84375,105.8,33.79379295,83.92156982,15
04-Jun-2023 15:06:43.001,8.02769566,-,127.4,14.35873606,1536.8,188.6,90.98039246,221.1764679,5565.5,2810.83136244,-5.46875,-14.84375,105.8,33.79379295,83.92156982,15
04-Jun-2023 15:06:43.097,8.02769566,-,127.4,14.35873606,1536.8,188.6,89.41176605,221.1764679,5572,2810.83136244,-5.46875,-15.625,105.8,33.79379295,50.58823395,15
04-Jun-2023 15:06:43.198,8.02293015,-,127.4,14.35873606,1536.8,188.6,88.23529053,214.90196228,5602,2849.9915517,-5.46875,-15.625,105.8,33.213642,50.58823395,15
04-Jun-2023 15:06:43.300,8.01816368,-,127.4,14.35873606,1536.8,188.6,88.23529053,213.33332825,5681.5,2839.83891004,-5.46875,-14.0625,105.8,33.06860426,50.58823395,15
04-Jun-2023 15:06:43.397,8.0157814,-,127.4,14.35873606,1536.8,188.6,89.01960754,217.25489807,5681.5,2842.7396648,-5.46875,-14.84375,105.8,33.35867974,63.52941132,15
04-Jun-2023 15:06:43.497,8.0157814,-,127.4,14.35873606,1536.8,188.6,90.19607544,221.96078491,5681.5,2845.64041956,-5.46875,-14.84375,105.8,33.35867974,63.52941132,15
04-Jun-2023 15:06:43.598,8.01339817,-,127.4,14.35873606,1536.8,188.6,91.76470947,221.96078491,5718.5,2855.79306122,-5.46875,-15.625,105.8,33.64875522,84.31372833,15.5
04-Jun-2023 15:06:43.699,8.01339817,-,127.4,14.35873606,1536.8,188.6,89.41176605,218.03921509,5718.5,2884.80060882,-5.46875,-15.625,105.8,33.213642,52.15686417,15
04-Jun-2023 15:06:43.800,8.01339817,-,127.4,14.35873606,1536.8,190.4,88.62744904,215.29411316,5756,2884.80060882,-5.46875,-15.625,105.8,32.92356653,52.15686417,15
04-Jun-2023 15:06:43.899,8.01339817,-,127.4,14.35873606,1536.8,190.4,88.62744904,215.29411316,5756,2884.80060882,-5.46875,-15.625,107.6,32.92356653,52.15686417,15.5
04-Jun-2023 15:06:43.999,8.01339817,-,127.4,14.35873606,1536.8,190.4,88.62744904,215.29411316,5756,2884.80060882,-5.46875,-15.625,107.6,32.92356653,52.15686417,15.5
04-Jun-2023 15:06:44.099,8.01339817,-,127.4,14.35873606,1536.8,190.4,88.62744904,215.29411316,5756,2884.80060882,-5.46875,-15.625,107.6,32.92356653,52.15686417,15.5
04-Jun-2023 15:06:44.199,8.00863266,-,127.4,14.35873606,1527.26002197,190.4,88.62744904,219.60784912,5858,2858.69381598,-5.46875,-15.625,107.6,33.213642,52.15686417,15.5
04-Jun-2023 15:06:44.299,8.00863266,-,127.4,14.35873606,1527.26002197,190.4,90.98039246,219.60784912,5858,2861.59457074,-5.46875,-15.625,107.6,33.213642,84.31372833,15.5
04-Jun-2023 15:06:44.398,8.00863266,-,127.4,14.35873606,1527.26002197,190.4,91.37255096,221.1764679,5895,2865.94570288,-5.46875,-16.40625,107.6,33.35867974,83.92156982,15.5
04-Jun-2023 15:06:44.498,8.00863266,-,127.4,14.35873606,1527.26002197,190.4,90.98039246,218.8235321,5895,2865.94570288,-5.46875,-16.40625,107.6,33.213642,83.92156982,15.5
04-Jun-2023 15:06:44.598,8.00625038,-,127.4,14.35873606,1527.26002197,190.4,90.98039246,218.8235321,5895,2871.7472124,-5.46875,-17.1875,107.6,33.213642,79.21568298,15.5
04-Jun-2023 15:06:44.699,8.00625038,-,127.4,14.35873606,1527.26002197,190.4,90.98039246,219.21568298,5932,2871.7472124,-5.46875,-17.1875,107.6,33.06860426,79.21568298,15.5
04-Jun-2023 15:06:44.797,8.00625038,-,127.4,14.35873606,1527.26002197,190.4,90.98039246,218.8235321,5932,2873.19758978,-5.46875,-16.40625,107.6,32.92356653,84.31372833,15.5
04-Jun-2023 15:06:44.897,8.00625038,-,127.4,14.35873606,1527.26002197,190.4,90.19607544,218.8235321,5990,2865.94570288,-5.46875,-15.625,107.6,32.92356653,84.31372833,16.5
04-Jun-2023 15:06:45.002,8.00625038,-,127.4,14.35873606,1527.26002197,190.4,90.19607544,217.25489807,6071.5,2865.94570288,-5.46875,-15.625,107.6,33.06860426,83.92156982,16.5
04-Jun-2023 15:06:45.097,8.00625038,-,127.4,14.35873606,1527.26002197,190.4,90.19607544,218.03921509,6071.5,2863.04494812,-5.46875,-15.625,107.6,33.06860426,83.92156982,16.5
04-Jun-2023 15:06:45.199,8.00625038,-,127.4,14.35873606,1527.26002197,190.4,90.19607544,219.21568298,6071.5,2871.7472124,-5.46875,-15.625,107.6,33.06860426,83.92156982,16.5
04-Jun-2023 15:06:45.297,8.00625038,-,127.4,14.35873606,1527.26002197,192.2,90.58823395,219.21568298,6069,2871.7472124,-5.46875,-16.40625,111.2,33.213642,83.92156982,17
04-Jun-2023 15:06:45.398,8.00625038,-,127.4,14.35873606,1518.8,192.2,90.58823395,217.64706421,6069,2874.64796716,-5.46875,-16.40625,111.2,32.77852879,83.92156982,17
04-Jun-2023 15:06:45.498,8.00625038,-,127.4,14.35873606,1518.8,192.2,89.80392456,217.64706421,6140,2871.7472124,-5.46875,-16.40625,111.2,32.77852879,83.92156982,17
04-Jun-2023 15:06:45.597,8.00625038,-,127.4,14.35873606,1518.8,192.2,89.41176605,216.47058105,6181.5,2887.70136358,-5.46875,-16.40625,111.2,32.92356653,83.92156982,18
04-Jun-2023 15:06:45.698,8.00625038,-,127.4,14.35873606,1518.8,192.2,89.80392456,216.07843018,6181.5,2887.70136358,-5.46875,-17.1875,111.2,32.92356653,83.92156982,18
04-Jun-2023 15:06:45.797,8.00625038,-,127.4,14.35873606,1518.8,192.2,89.80392456,216.07843018,6181.5,2889.15174096,-5.46875,-17.1875,111.2,32.92356653,83.92156982,18
04-Jun-2023 15:06:45.899,8.00625038,-,127.4,14.35873606,1518.8,192.2,89.80392456,216.47058105,6181.5,2889.15174096,-5.46875,-17.1875,111.2,32.92356653,83.92156982,18
04-Jun-2023 15:06:46.003,8.00625038,-,127.4,14.35873606,1518.8,192.2,89.80392456,216.47058105,6181.5,2889.15174096,-5.46875,-17.1875,111.2,32.63349105,83.92156982,18
04-Jun-2023 15:06:46.097,8.00625038,-,127.4,14.35873606,1518.8,192.2,89.80392456,215.6862793,6256.5,2890.60211834,-5.46875,-16.40625,111.2,32.63349105,83.92156982,18
04-Jun-2023 15:06:46.199,8.00625038,-,127.4,14.35873606,1518.8,192.2,89.41176605,215.6862793,6290.5,2890.60211834,-5.46875,-16.40625,111.2,32.63349105,83.92156982,18